Volver al catálogo

COSMOS 2251 DEB

ActivoLEO
NORAD 37491·DEBRIS·🇷🇺 Russia

Lanzado Jun 16, 1993 desde Plesetsk Cosmodrome

Loading…

Próximos Pases (próximas 24 horas)

TLE

ActualizadoSource: Space-Track

Época: Sep 13, 2026, 10:32 UTC

1 37491U 93036BLU 26256.43904630  .00000942  00000-0  69442-3 0  9998
2 37491  73.9059 173.3001 0312076 114.7224 248.6720 13.75991051595249

Sigue COSMOS 2251 DEB en tiempo real con AllMySat

Download on the App Store